Location: Coffee Creek Observatory
(38.8077°N, 94.7179°W)
Time: 07:42:01
(UTC-05:00)

Amateur Radio Satellites - All Passes

Search period start: 30 June 2015 07:12
Search period end: 01 July 2015 07:12
Location: Coffee Creek Observatory, 38.8077°N, 94.7179°W

Satellite Date Start Highest point End Downlink Frequencies (MHz)
Time Altitude Azimuth
Cosmos 2504 30 Jun 07:13:02 07:20:22 88° 277° (W) 07:27:34 435.465 / 435.565
Cubesat XI-IV 30 Jun 07:43:26 07:48:51 83° 101° (ESE) 07:54:13 437.490
O/OREOS (USA 219) 30 Jun 07:48:09 07:49:53 12° 100° (E) 07:51:51 437.305
CUBESAT XI-V 30 Jun 07:51:20 07:54:57 21° 268° (W) 07:58:28 437.345
AUBIESAT-1 30 Jun 07:55:16 07:56:54 13° 63° (ENE) 07:58:41 437.475
GONETS M04 30 Jun 08:18:00 08:19:33 11° 77° (ENE) 08:21:56
M-CUBED/EXP-1 PRIME 30 Jun 08:23:15 08:26:17 36° 68° (ENE) 08:29:24 437.505
STRAND 1 30 Jun 08:24:55 08:29:25 30° 265° (W) 08:33:53 437.568
CUSAT 1 30 Jun 08:33:10 08:39:55 44° 96° (E) 08:45:22 437.405
PRISM 30 Jun 08:36:09 08:38:59 17° 268° (W) 08:41:42 437.425
BRITE-PL 30 Jun 08:40:45 08:44:37 30° 95° (E) 08:48:22 437.365/2234.400
GOMX 1 30 Jun 08:41:48 08:44:34 17° 91° (E) 08:47:26 467.674
HO-68 30 Jun 08:42:42 08:47:18 19° 90° (E) 08:52:15 435.675
CUTE-I 30 Jun 08:51:34 08:55:56 25° 293° (WNW) 09:00:08 437.470
BEESAT 3 30 Jun 08:53:37 08:57:37 62° 118° (ESE) 09:01:41 437.485
BEESAT 2 30 Jun 08:58:53 09:02:53 54° 118° (ESE) 09:06:56 435.950
DANDE 30 Jun 09:01:58 09:09:43 59° 96° (E) 09:15:58 436.750
CUTE 1.7 + AOD 2 30 Jun 09:02:46 09:05:31 17° 92° (E) 09:08:24 437.475
CANX-2 30 Jun 09:05:03 09:08:11 20° 93° (E) 09:11:26 2200.000
COMPASS 1 30 Jun 09:09:28 09:11:10 12° 89° (E) 09:13:06 437.405
Cosmos 2504 30 Jun 09:11:26 09:15:01 14° 298° (WNW) 09:18:08 435.465 / 435.565
RS-15 30 Jun 09:19:14 09:26:34 19° 12° (NNE) 09:34:18 29.354- 29.394
O/OREOS (USA 219) 30 Jun 09:24:29 09:28:52 55° 295° (WNW) 09:33:16 437.305
Cubesat XI-IV 30 Jun 09:25:51 09:28:19 13° 299° (WNW) 09:30:30 437.490
AUBIESAT-1 30 Jun 09:28:33 09:31:28 29° 258° (WSW) 09:34:25 437.475
VERMONT LUNAR 30 Jun 09:32:50 09:35:22 23° 151° (SSE) 09:37:57 437.305
CINEMA 3 30 Jun 09:33:21 09:36:07 18° 92° (E) 09:39:02 145.822/145.860
AIST 2 30 Jun 09:45:29 09:49:29 42° 116° (ESE) 09:53:34 435.215
DOVE 4 30 Jun 09:48:26 09:52:36 63° 100° (E) 09:56:41 437.250
SEEDS 30 Jun 09:57:47 10:02:00 60° 100° (E) 10:06:12 437.485
Oscar 11 30 Jun 10:00:43 10:03:44 19° 92° (E) 10:06:53 145.826/435.025
GONETS M04 30 Jun 10:06:19 10:15:01 69° 93° (E) 10:23:44
ANTELSAT 30 Jun 10:16:00 10:19:19 22° 69° (ENE) 10:22:42 437.575/2403.000
CUSAT 1 30 Jun 10:16:34 10:22:33 28° 285° (WNW) 10:27:21 437.405
UWE-3 30 Jun 10:18:29 10:21:41 22° 94° (E) 10:25:01 435.000/436.395/437.385
ISS 30 Jun 10:18:39 10:21:53 74° 138° (SE) 10:25:08 145.825
GOMX 1 30 Jun 10:19:03 10:22:55 33° 289° (WNW) 10:26:38 467.674
FUNcube-1 30 Jun 10:19:32 10:22:09 17° 92° (E) 10:24:57 145.935
BRITE-PL 30 Jun 10:19:40 10:23:01 21° 292° (WNW) 10:26:09 437.365/2234.400
PHONESAT 2.4 30 Jun 10:20:26 10:21:48 12° 145° (SE) 10:23:16 2401.200-2431.200
AAUSAT CUBESAT 2 30 Jun 10:21:05 10:25:18 76° 102° (ESE) 10:29:30 437.432
HO-68 30 Jun 10:28:39 10:35:49 74° 287° (WNW) 10:42:55 435.675
TIGRISAT 30 Jun 10:30:04 10:33:49 31° 71° (ENE) 10:37:37 435.000
BEESAT 3 30 Jun 10:33:40 10:36:01 14° 317° (NW) 10:38:14 437.485
QB50P2 30 Jun 10:35:45 10:38:16 16° 67° (ENE) 10:40:56 145.880/145.840
CUTE 1.7 + AOD 2 30 Jun 10:37:38 10:41:36 37° 287° (WNW) 10:45:32 437.475
POPSAT HIP 1 30 Jun 10:37:43 10:40:15 16° 67° (ENE) 10:42:58 437.405
BEESAT 2 30 Jun 10:38:41 10:41:19 16° 316° (NW) 10:43:50 435.950
CANX-2 30 Jun 10:40:22 10:44:11 31° 288° (WNW) 10:47:57 2200.000
HUMSAT D 30 Jun 10:40:41 10:42:08 12° 90° (E) 10:43:50 437.325/437.525
COMPASS 1 30 Jun 10:43:06 10:47:11 49° 286° (WNW) 10:51:16 437.405
BUGSAT 1 30 Jun 10:45:42 10:47:29 13° 66° (ENE) 10:49:27 437.445
DANDE 30 Jun 10:46:54 10:53:04 25° 288° (WNW) 10:58:05 436.750
CUBEBUG 2 30 Jun 10:52:57 10:57:07 71° 101° (E) 11:01:22 437.445
DX 1 30 Jun 11:04:52 11:07:58 20° 93° (E) 11:11:11 434.975-435.025
UNISAT 6 30 Jun 11:07:05 11:11:25 86° 77° (ENE) 11:15:44 437.425
VERMONT LUNAR 30 Jun 11:08:57 11:12:06 90° 32° (NNE) 11:15:16 437.305
DELFI C3 30 Jun 11:09:43 11:13:49 84° 105° (ESE) 11:17:52 145.870
CINEMA 3 30 Jun 11:09:43 11:13:28 33° 288° (WNW) 11:17:12 145.822/145.860
QB50P1 30 Jun 11:15:38 11:19:39 42° 73° (ENE) 11:23:41 145.935-145.965
ZACube-1 30 Jun 11:16:10 11:20:23 80° 103° (ESE) 11:24:38 437.345
AISAT 30 Jun 11:22:44 11:25:35 17° 92° (E) 11:28:35 437.250
AIST 2 30 Jun 11:25:03 11:28:16 20° 313° (NW) 11:31:26 435.215
DOVE 4 30 Jun 11:29:25 11:29:53 10° 295° (WNW) 11:30:07 437.250
NANOSAT C BR1 30 Jun 11:31:32 11:35:45 65° 75° (ENE) 11:39:58 145.865
UKube-1 30 Jun 11:32:26 11:36:26 36° 98° (E) 11:40:26 .
RS-15 30 Jun 11:32:32 11:43:22 43° 43° (NE) 11:54:45 29.354- 29.394
SEEDS 30 Jun 11:35:44 11:37:20 12° 294° (WNW) 11:38:42 437.485
Oscar 11 30 Jun 11:36:05 11:40:03 35° 288° (WNW) 11:43:58 145.826/435.025
ESTCUBE 1 30 Jun 11:37:35 11:40:21 16° 91° (E) 11:43:18 437.505/2401.250
POLYITAN 1 30 Jun 11:39:02 11:43:18 82° 77° (ENE) 11:47:34 437.675
Cosmos 2499 30 Jun 11:39:30 11:46:20 54° 92° (E) 11:53:12 435.465 / 435.565
DUCHIFAT 1 30 Jun 11:40:09 11:44:23 80° 77° (ENE) 11:48:39 145.980
50 SAT 30 Jun 11:44:18 11:47:49 32° 97° (E) 11:51:22 437.505
ANTELSAT 30 Jun 11:52:12 11:56:00 29° 264° (W) 11:59:43 437.575/2403.000
UWE-3 30 Jun 11:54:38 11:58:15 28° 289° (WNW) 12:01:51 435.000/436.395/437.385
FUNcube-1 30 Jun 11:54:47 11:58:39 37° 287° (WNW) 12:02:33 145.935
CUBEBUG 1 30 Jun 11:55:29 11:58:44 21° 93° (E) 12:02:05 437.445
PHONESAT 2.4 30 Jun 11:56:01 11:59:22 53° 159° (SSE) 12:02:47 2401.200-2431.200
ISS 30 Jun 11:56:19 11:58:37 17° 337° (NNW) 12:00:53 145.825
GONETS M04 30 Jun 12:05:45 12:12:46 25° 294° (WNW) 12:19:26
TIGRISAT 30 Jun 12:07:19 12:10:39 21° 266° (W) 12:13:50 435.000
QB50P2 30 Jun 12:09:48 12:13:52 42° 262° (W) 12:17:54 145.880/145.840
POPSAT HIP 1 30 Jun 12:11:47 12:15:50 41° 262° (W) 12:19:52 437.405
VELOX 1 30 Jun 12:12:28 12:16:52 61° 101° (E) 12:21:12 145.980
HUMSAT D 30 Jun 12:14:13 12:18:14 50° 286° (WNW) 12:22:16 437.325/437.525
BUGSAT 1 30 Jun 12:18:22 12:22:33 54° 260° (W) 12:26:43 437.445
HO-68 30 Jun 12:19:02 12:22:30 14° 305° (NW) 12:25:34 435.675
DX 1 30 Jun 12:40:23 12:44:20 34° 289° (WNW) 12:48:12 434.975-435.025
TISAT 1 30 Jun 12:41:48 12:43:06 11° 89° (E) 12:44:39 437.305
VERMONT LUNAR 30 Jun 12:46:01 12:49:09 61° 2° (N) 12:52:20 437.305
QB50P1 30 Jun 12:53:13 12:55:46 15° 269° (W) 12:58:07 145.935-145.965
AISAT 30 Jun 12:58:14 13:02:22 39° 288° (WNW) 13:06:26 437.250
UKube-1 30 Jun 13:09:14 13:12:20 19° 293° (WNW) 13:15:17 .
Oscar 19 30 Jun 13:10:04 13:14:25 29° 69° (ENE) 13:18:51 437.125/150
ESTCUBE 1 30 Jun 13:13:10 13:17:30 44° 287° (WNW) 13:21:47 437.505/2401.250
SPROUT 30 Jun 13:14:56 13:19:04 45° 99° (E) 13:23:10 437.525
50 SAT 30 Jun 13:19:39 13:22:14 17° 291° (WNW) 13:24:41 437.505
CUBEBUG 1 30 Jun 13:31:16 13:35:10 32° 289° (WNW) 13:39:00 437.445
PHONESAT 2.4 30 Jun 13:33:57 13:37:24 66° 354° (N) 13:40:53 2401.200-2431.200
Cosmos 2499 30 Jun 13:34:19 13:39:58 24° 292° (WNW) 13:45:24 435.465 / 435.565
RS-15 30 Jun 13:44:57 13:56:30 63° 246° (WSW) 14:08:22 29.354- 29.394
YUBILEINY 30 Jun 13:48:51 13:53:04 15° 59° (ENE) 13:57:54 435.215
VELOX 1 30 Jun 13:51:01 13:52:57 12° 295° (WNW) 13:54:40 145.980
BEESAT 30 Jun 14:08:05 14:11:21 19° 92° (E) 14:14:47 436.000
AO-7 30 Jun 14:13:55 14:17:34 14° 50° (NE) 14:21:41 29.400- 29.500
TISAT 1 30 Jun 14:15:11 14:19:16 52° 286° (WNW) 14:23:20 437.305
Gurwin Techsat 1B 30 Jun 14:17:10 14:21:57 37° 70° (ENE) 14:26:50 435.225
SWISSCUBE 30 Jun 14:22:18 14:26:26 29° 95° (E) 14:30:37 437.505
VERMONT LUNAR 30 Jun 14:23:00 14:26:09 62° 200° (SSW) 14:29:20 437.305
ITUPSAT 1 30 Jun 14:25:21 14:29:27 28° 95° (E) 14:33:35 437.325
JAS-2 30 Jun 14:49:08 14:52:19 17° 64° (ENE) 14:55:45 435.910
Oscar 19 30 Jun 14:49:09 14:53:43 31° 264° (W) 14:58:15 437.125/150
ITAMSAT 1 30 Jun 14:49:37 14:54:48 73° 75° (ENE) 15:00:03 435.822/435.867
SPROUT 30 Jun 14:52:17 14:54:48 15° 293° (WNW) 14:57:08 437.525
HORYU 2 30 Jun 14:59:11 15:00:17 11° 64° (ENE) 15:01:38 437.375
ISS 30 Jun 15:11:59 15:13:38 13° 17° (NNE) 15:15:19 145.825
PHONESAT 2.4 30 Jun 15:12:06 15:15:35 83° 11° (N) 15:19:06 2401.200-2431.200
YUBILEINY 30 Jun 15:42:54 15:51:41 78° 81° (E) 16:00:29 435.215
BEESAT 30 Jun 15:44:53 15:49:26 43° 288° (WNW) 15:53:56 436.000
Gurwin Techsat 1B 30 Jun 15:57:35 16:02:02 26° 266° (W) 16:06:24 435.225
SWISSCUBE 30 Jun 16:00:07 16:04:15 28° 291° (WNW) 16:08:17 437.505
Cosmos 2491 30 Jun 16:00:12 16:08:40 55° 91° (E) 16:17:13 435.465 / 435.565
AO-7 30 Jun 16:00:46 16:08:57 65° 68° (ENE) 16:17:13 29.400- 29.500
VERMONT LUNAR 30 Jun 16:00:58 16:02:45 14° 213° (SSW) 16:04:28 437.305
STARS 30 Jun 16:02:25 16:06:13 29° 96° (E) 16:10:05 437.465
ITUPSAT 1 30 Jun 16:03:07 16:07:18 29° 291° (WNW) 16:11:25 437.325
RS-15 30 Jun 16:03:38 16:07:11 11° 262° (W) 16:09:21 29.354- 29.394
HORYU 2 30 Jun 16:32:00 16:36:24 69° 258° (WSW) 16:40:49 437.375
JAS-2 30 Jun 16:32:01 16:37:05 52° 260° (W) 16:42:13 435.910
ITAMSAT 1 30 Jun 16:32:41 16:34:57 12° 272° (W) 16:36:54 435.822/435.867
KKS-1 30 Jun 16:35:02 16:39:27 69° 285° (WNW) 16:43:50 437.445
ISS 30 Jun 16:47:24 16:50:36 58° 36° (NE) 16:53:48 145.825
AIST 1 30 Jun 16:48:15 16:52:37 77° 96° (E) 16:57:02
PHONESAT 2.4 30 Jun 16:50:20 16:53:27 30° 207° (SSW) 16:56:35 2401.200-2431.200
Cosmos 2504 30 Jun 17:06:15 17:12:43 30° 71° (ENE) 17:19:44 435.465 / 435.565
BEESAT 3 30 Jun 17:13:42 17:17:07 25° 50° (NE) 17:20:31 437.485
BEESAT 2 30 Jun 17:19:34 17:22:53 24° 49° (NE) 17:26:14 435.950
PCSat 30 Jun 17:20:53 17:26:18 84° 118° (ESE) 17:31:45 145.827
Cubesat XI-IV 30 Jun 17:27:04 17:29:59 15° 63° (ENE) 17:33:09 437.490
SO-50 30 Jun 17:37:43 17:41:27 24° 112° (ESE) 17:45:22 436.795
STARS 30 Jun 17:39:04 17:42:33 23° 291° (WNW) 17:45:56 437.465
YUBILEINY 30 Jun 17:41:37 17:47:39 20° 278° (W) 17:53:15 435.215
AO-7 30 Jun 17:55:34 18:02:23 26° 267° (W) 18:08:57 29.400- 29.500
MOZHAYETS 4 30 Jun 17:56:29 18:01:09 88° 102° (ESE) 18:05:48
O/OREOS (USA 219) 30 Jun 17:57:02 18:00:27 21° 58° (ENE) 18:04:00 437.305
Cosmos 2491 30 Jun 17:58:18 18:06:01 31° 291° (WNW) 18:13:31 435.465 / 435.565
AIST 2 30 Jun 18:08:48 18:12:00 21° 47° (NE) 18:15:14 435.215
ISS 30 Jun 18:25:03 18:26:41 13° 230° (SW) 18:28:12 145.825
CUTE-I 30 Jun 18:31:28 18:36:43 59° 73° (ENE) 18:42:01 437.470
BEESAT 3 30 Jun 18:51:34 18:55:03 27° 246° (WSW) 18:58:24 437.485
BEESAT 2 30 Jun 18:57:23 19:00:59 30° 246° (WSW) 19:04:29 435.950
Cosmos 2504 30 Jun 18:59:03 19:06:25 51° 268° (W) 19:14:13 435.465 / 435.565
STRAND 1 30 Jun 19:00:08 19:01:08 11° 87° (E) 19:02:31 437.568
Cubesat XI-IV 30 Jun 19:04:13 19:09:33 69° 258° (WSW) 19:14:57 437.490
PCSat 30 Jun 19:07:09 19:10:30 16° 317° (NW) 19:13:40 145.827
HO-68 30 Jun 19:12:34 19:15:35 14° 55° (NE) 19:19:01 435.675
SO-50 30 Jun 19:17:22 19:21:48 38° 309° (NW) 19:26:22 436.795
O/OREOS (USA 219) 30 Jun 19:35:52 19:40:00 35° 255° (WSW) 19:44:07 437.305
AIST 2 30 Jun 19:46:49 19:50:43 37° 245° (WSW) 19:54:31 435.215
DANDE 30 Jun 19:47:55 19:49:58 17° 69° (ENE) 19:51:53 436.750
CUBESAT XI-V 30 Jun 19:47:56 19:52:39 76° 284° (WNW) 19:57:18 437.345
GOMX 1 30 Jun 19:47:58 19:51:52 22° 69° (ENE) 19:55:46 467.674
BRITE-PL 30 Jun 19:49:01 19:54:06 38° 72° (ENE) 19:59:01 437.365/2234.400
CUTE 1.7 + AOD 2 30 Jun 19:56:24 19:57:26 11° 65° (ENE) 19:58:42 437.475
CANX-2 30 Jun 19:58:12 20:00:03 13° 66° (ENE) 20:02:07 2200.000
CUTE-I 30 Jun 20:13:52 20:17:16 16° 270° (W) 20:20:27 437.470
PRISM 30 Jun 20:17:58 20:22:11 71° 102° (ESE) 20:26:21 437.425
GONETS M04 30 Jun 20:18:45 20:26:11 32° 69° (ENE) 20:33:47
CINEMA 3 30 Jun 20:34:20 20:37:08 17° 68° (ENE) 20:40:03 145.822/145.860
JUGNU 30 Jun 20:35:22 20:37:16 11° 180° (S) 20:39:09 437.505
STRAND 1 30 Jun 20:35:53 20:41:04 80° 285° (WNW) 20:46:12 437.568
SEEDS 30 Jun 20:48:41 20:52:27 34° 72° (ENE) 20:56:17 437.485
DOVE 4 30 Jun 20:52:00 20:56:55 58° 75° (ENE) 21:01:37 437.250
HO-68 30 Jun 20:55:10 21:02:17 74° 72° (ENE) 21:09:26 435.675
Oscar 11 30 Jun 20:55:35 20:57:31 13° 66° (ENE) 20:59:41 145.826/435.025
CUSAT 1 30 Jun 20:56:52 20:58:40 16° 268° (W) 21:00:20 437.405
AUBIESAT-1 30 Jun 21:09:23 21:12:08 17° 98° (E) 21:15:09 437.475
AAUSAT CUBESAT 2 30 Jun 21:10:32 21:14:24 41° 73° (ENE) 21:18:20 437.432
UWE-3 30 Jun 21:15:20 21:17:56 16° 68° (ENE) 21:20:38 435.000/436.395/437.385
FUNcube-1 30 Jun 21:15:39 21:17:08 12° 66° (ENE) 21:18:50 145.935
SRMSAT 30 Jun 21:20:04 21:21:10 11° 174° (S) 21:22:18 437.500
GOMX 1 30 Jun 21:24:44 21:29:48 42° 262° (W) 21:34:34 467.674
BRITE-PL 30 Jun 21:27:54 21:32:40 27° 266° (W) 21:37:08 437.365/2234.400
CUTE 1.7 + AOD 2 30 Jun 21:28:43 21:32:53 62° 260° (W) 21:37:04 437.475
CANX-2 30 Jun 21:31:30 21:35:35 51° 261° (W) 21:39:43 2200.000
Cosmos 2499 30 Jun 21:31:57 21:36:43 18° 65° (ENE) 21:42:06 435.465 / 435.565
COMPASS 1 30 Jun 21:32:35 21:36:44 89° 255° (WSW) 21:40:55 437.405
M-CUBED/EXP-1 PRIME 30 Jun 21:38:30 21:42:26 42° 104° (ESE) 21:46:41 437.505
CUBEBUG 2 30 Jun 21:49:52 21:54:06 50° 74° (ENE) 21:58:14 437.445
DELFI C3 30 Jun 21:55:38 21:59:23 40° 73° (ENE) 22:03:11 145.870
DX 1 30 Jun 21:59:58 22:02:32 16° 66° (ENE) 22:05:17 434.975-435.025
CINEMA 3 30 Jun 22:09:38 22:14:06 45° 261° (W) 22:18:21 145.822/145.860
ZACube-1 30 Jun 22:10:50 22:14:58 52° 75° (ENE) 22:19:04 437.345
GONETS M04 30 Jun 22:15:05 22:23:28 54° 269° (W) 22:31:45
AISAT 30 Jun 22:20:02 22:22:25 15° 66° (ENE) 22:25:01 437.250
SEEDS 30 Jun 22:25:31 22:28:23 17° 268° (W) 22:31:09 437.485
UKube-1 30 Jun 22:26:12 22:29:50 27° 70° (ENE) 22:33:34 .
50 SAT 30 Jun 22:28:20 22:30:39 16° 68° (ENE) 22:33:05 437.505
Oscar 11 30 Jun 22:29:06 22:33:18 53° 261° (W) 22:37:31 145.826/435.025
DOVE 4 30 Jun 22:32:17 22:35:02 14° 270° (W) 22:37:28 437.250
ESTCUBE 1 30 Jun 22:36:54 22:39:08 14° 65° (ENE) 22:41:35 437.505/2401.250
AUBIESAT-1 30 Jun 22:43:06 22:46:58 40° 291° (WNW) 22:51:05 437.475
HO-68 30 Jun 22:45:48 22:50:47 19° 270° (W) 22:55:24 435.675
AAUSAT CUBESAT 2 30 Jun 22:47:54 22:50:16 14° 269° (W) 22:52:27 437.432
FUNcube-1 30 Jun 22:48:53 22:53:04 56° 260° (W) 22:57:12 145.935
UWE-3 30 Jun 22:50:07 22:54:12 40° 262° (W) 22:58:12 435.000/436.395/437.385
CUBEBUG 1 30 Jun 22:51:04 22:53:46 16° 67° (ENE) 22:56:36 437.445
UNISAT 6 30 Jun 23:00:56 23:03:59 19° 93° (E) 23:07:14 437.425
HUMSAT D 30 Jun 23:04:19 23:08:27 88° 253° (WSW) 23:12:34 437.325/437.525
SRMSAT 30 Jun 23:07:58 23:09:26 11° 184° (S) 23:10:52 437.500
VELOX 1 30 Jun 23:08:38 23:12:53 46° 73° (ENE) 23:17:12 145.980
M-CUBED/EXP-1 PRIME 30 Jun 23:14:16 23:17:02 17° 296° (WNW) 23:19:47 437.505
NANOSAT C BR1 30 Jun 23:20:07 23:21:15 11° 89° (E) 23:22:40 145.865
Cosmos 2499 30 Jun 23:23:04 23:30:51 85° 265° (W) 23:39:15 435.465 / 435.565
POLYITAN 1 30 Jun 23:27:13 23:29:27 14° 91° (E) 23:31:52 437.675
DUCHIFAT 1 30 Jun 23:27:45 23:29:49 14° 91° (E) 23:32:04 145.980
CUBEBUG 2 30 Jun 23:29:03 23:31:07 13° 270° (W) 23:32:56 437.445
DELFI C3 30 Jun 23:32:35 23:34:43 14° 270° (W) 23:36:40 145.870
DX 1 30 Jun 23:34:14 23:38:27 45° 261° (W) 23:42:41 434.975-435.025
ANTELSAT 30 Jun 23:44:24 23:48:42 59° 100° (E) 23:53:07 437.575/2403.000
ZACube-1 30 Jun 23:50:00 23:51:42 12° 270° (W) 23:53:08 437.345
AISAT 30 Jun 23:54:14 23:58:37 51° 260° (W) 00:03:00 437.250
QB50P2 30 Jun 23:56:23 00:00:10 32° 96° (E) 00:03:58 145.880/145.840
POPSAT HIP 1 30 Jun 23:58:13 00:01:59 32° 97° (E) 00:05:47 437.405
TIGRISAT 30 Jun 23:58:39 00:03:00 84° 102° (ESE) 00:07:26 435.000
50 SAT 01 Jul 00:01:33 00:05:03 33° 263° (W) 00:08:31 437.505
UKube-1 01 Jul 00:02:21 00:05:57 24° 265° (W) 00:09:29 .
BUGSAT 1 01 Jul 00:02:32 00:05:42 22° 94° (E) 00:08:54 437.445
SPROUT 01 Jul 00:07:58 00:11:44 30° 71° (ENE) 00:15:33 437.525
ESTCUBE 1 01 Jul 00:11:08 00:15:35 56° 260° (W) 00:20:04 437.505/2401.250
CUBEBUG 1 01 Jul 00:25:32 00:29:47 45° 261° (W) 00:34:04 437.445
UNISAT 6 01 Jul 00:36:56 00:40:54 35° 288° (WNW) 00:44:54 437.425
QB50P1 01 Jul 00:37:25 00:41:38 84° 284° (WNW) 00:45:50 145.935-145.965
VELOX 1 01 Jul 00:47:03 00:49:44 15° 269° (W) 00:52:15 145.980
NANOSAT C BR1 01 Jul 00:53:24 00:57:31 54° 286° (WNW) 01:01:36 145.865
POLYITAN 1 01 Jul 01:01:37 01:05:37 42° 287° (WNW) 01:09:35 437.675
DUCHIFAT 1 01 Jul 01:01:54 01:05:54 44° 287° (WNW) 01:09:52 145.980
TISAT 1 01 Jul 01:05:30 01:09:46 87° 253° (WSW) 01:14:03 437.305
BEESAT 01 Jul 01:13:40 01:16:58 20° 67° (ENE) 01:20:26 436.000
Cosmos 2499 01 Jul 01:19:14 01:23:12 14° 278° (W) 01:26:40 435.465 / 435.565
ANTELSAT 01 Jul 01:23:11 01:25:05 12° 294° (WNW) 01:26:47 437.575/2403.000
Oscar 19 01 Jul 01:25:40 01:26:14 10° 87° (E) 01:27:11 437.125/150
SWISSCUBE 01 Jul 01:27:45 01:31:48 29° 69° (ENE) 01:35:58 437.505
ITUPSAT 1 01 Jul 01:31:04 01:35:06 28° 69° (ENE) 01:39:14 437.325
QB50P2 01 Jul 01:32:46 01:35:53 20° 291° (WNW) 01:38:53 145.880/145.840
POPSAT HIP 1 01 Jul 01:34:35 01:37:41 20° 292° (WNW) 01:40:38 437.405
BUGSAT 1 01 Jul 01:37:44 01:41:09 26° 290° (WNW) 01:44:29 437.445
SPROUT 01 Jul 01:44:29 01:47:52 21° 267° (W) 01:51:08 437.525
RS-15 01 Jul 01:58:01 02:05:40 24° 104° (ESE) 02:14:00 29.354- 29.394
SO-50 01 Jul 02:10:05 02:13:40 20° 43° (NE) 02:17:20 436.795
PCSat 01 Jul 02:10:09 02:15:26 50° 57° (ENE) 02:20:42 145.827
Cosmos 2491 01 Jul 02:12:53 02:19:37 25° 66° (ENE) 02:26:37 435.465 / 435.565
Gurwin Techsat 1B 01 Jul 02:35:45 02:38:47 16° 90° (E) 02:42:05 435.225
YUBILEINY 01 Jul 02:49:52 02:54:36 17° 80° (E) 02:59:55 435.215
BEESAT 01 Jul 02:50:00 02:54:32 43° 262° (W) 02:59:05 436.000
AIST 1 01 Jul 02:57:54 03:00:41 17° 71° (ENE) 03:03:35
STARS 01 Jul 02:58:24 03:01:51 23° 69° (ENE) 03:05:24 437.465
Oscar 19 01 Jul 03:01:11 03:06:19 82° 285° (WNW) 03:11:27 437.125/150
ITAMSAT 1 01 Jul 03:04:18 03:08:44 28° 95° (E) 03:13:15 435.822/435.867
SWISSCUBE 01 Jul 03:05:32 03:09:38 27° 265° (W) 03:13:41 437.505
ITUPSAT 1 01 Jul 03:08:48 03:12:57 28° 265° (W) 03:17:04 437.325
KKS-1 01 Jul 03:31:34 03:36:03 89° 256° (WSW) 03:40:32 437.445
JAS-2 01 Jul 03:41:00 03:45:57 23° 93° (E) 03:51:32 435.910
SO-50 01 Jul 03:49:46 03:54:39 60° 242° (WSW) 03:59:25 436.795
PCSat 01 Jul 03:54:29 03:58:31 21° 253° (WSW) 04:02:22 145.827
AO-7 01 Jul 04:05:07 04:11:02 22° 91° (E) 04:17:19 29.400- 29.500
RS-15 01 Jul 04:05:58 04:16:53 82° 302° (WNW) 04:28:12 29.354- 29.394
Cosmos 2491 01 Jul 04:08:40 04:17:21 68° 267° (W) 04:25:54 435.465 / 435.565
Gurwin Techsat 1B 01 Jul 04:14:00 04:19:15 60° 287° (WNW) 04:24:28 435.225
HORYU 2 01 Jul 04:24:58 04:28:33 24° 95° (E) 04:32:14 437.375
STARS 01 Jul 04:34:18 04:38:11 29° 264° (W) 04:42:01 437.465
AIST 1 01 Jul 04:34:29 04:38:33 37° 268° (W) 04:42:31
YUBILEINY 01 Jul 04:41:43 04:50:26 88° 280° (W) 04:59:11 435.215
ITAMSAT 1 01 Jul 04:43:36 04:48:16 33° 291° (WNW) 04:52:50 435.822/435.867
MOZHAYETS 4 01 Jul 04:56:56 05:01:27 70° 76° (ENE) 05:06:02
JAS-2 01 Jul 05:24:59 05:31:20 61° 287° (WNW) 05:38:26 435.910
Cosmos 2504 01 Jul 05:45:04 05:50:21 23° 85° (E) 05:55:49 435.465 / 435.565
AO-7 01 Jul 05:56:20 06:04:43 75° 290° (WNW) 06:13:01 29.400- 29.500
HORYU 2 01 Jul 06:01:20 06:05:12 29° 290° (WNW) 06:09:00 437.375
Cosmos 2491 01 Jul 06:11:14 06:12:45 10° 284° (WNW) 06:13:26 435.465 / 435.565
STRAND 1 01 Jul 06:13:57 06:16:49 16° 64° (ENE) 06:19:55 437.568
RS-15 01 Jul 06:22:21 06:31:26 27° 330° (NNW) 06:40:35 29.354- 29.394
MOZHAYETS 4 01 Jul 06:38:52 06:39:17 10° 273° (W) 06:39:21
YUBILEINY 01 Jul 06:43:16 06:48:46 17° 299° (WNW) 06:53:47 435.215
CUBESAT XI-V 01 Jul 06:49:38 06:54:21 89° 77° (ENE) 06:59:06 437.345
CUTE-I 01 Jul 06:50:28 06:54:51 26° 94° (E) 06:59:19 437.470
